Regional Weather Roundup
Issued by NWS Sterling, VA

Home | Current Version | Previous Version | Text Only | Print | Product List | Glossary Off
Versions: 1 2 3 4 5 6 7 8 9 10 11 12 13 14 15 16 17 18 19 20 21 22 23 24 25 26 27 28 29 30 31 32 33 34 35 36 37 38 39 40 41 42 43 44 45 46 47 48 49 50

000
ASUS41 KLWX 261410
RWRLWX

REGIONAL WEATHER ROUNDUP
NATIONAL WEATHER SERVICE BALTIMORE MD/WASHINGTON DC
1000 AM EDT SUN APR 26 2015

Note: "FAIR" indicates few or no clouds below 12,000 feet
with no significant weather and/or obstructions to visibility.
 TC=TEMPERATURE CELSIUS

 * =Non NWS site. Station does not report precipitation (e.g. rain,
    snow, etc.), thunder, or fog.

DCZ001-MDZ009-015-VAZ040>042-051-053>054-261500-
WASHINGTON METRO

CITY           SKY/WX    TMP DP  RH WIND       PRES   REMARKS
WASHINGTON NAT MOSUNNY   54  37  52 NE6       29.72R
DULLES         MOSUNNY   51  37  58 N8        29.72S
ANDREWS AFB    MOSUNNY   51  38  61 N8        29.70R
FT BELVOIR     MOSUNNY   50  37  60 VRB5      29.72R
QUANTICO       CLOUDY    52  40  63 NE7       29.73R
COLLEGE PARK*  MOSUNNY   52  36  54 N6        29.71R
LEESBURG*      MOSUNNY   52  37  58 N8        29.73S
MANASSAS*      PTSUNNY   48  41  76 N7        29.73R
GAITHERSBURG*  SUNNY     52  36  54 NE7       29.75R

$$

MDZ006>007-011-014-261500-
BALTIMORE METRO

CITY           SKY/WX    TMP DP  RH WIND       PRES   REMARKS
BWI AIRPORT    MOSUNNY   53  32  44 NE8G16    29.70R
MD SCIENCE CTR   N/A     55  30  38 MISG      29.71R
MARTIN STATE   MOSUNNY   55  34  44 N12       29.72R
ANNAPOLIS      SUNNY     52  34  50 N12       29.70R
FORT MEADE*    SUNNY     52  34  50 N8        29.73R

$$

MDZ012-015-019>023-261500-
MARYLAND EASTERN SHORE

CITY           SKY/WX    TMP DP  RH WIND       PRES   REMARKS
OCEAN CITY     CLOUDY    47  41  80 N8        29.67S
SALISBURY      PTSUNNY   48  41  76 NW9       29.68R
BAY BRIDGE AP*   N/A    N/A N/A N/A N8        29.70R
CAMBRIDGE*     MOSUNNY   52  41  66 NW6       29.68R
EASTON*        MOSUNNY   54  41  62 NE9       29.72R

$$

MDZ017>025-261500-
SOUTHERN MARYLAND

CITY           SKY/WX    TMP DP  RH WIND       PRES   REMARKS
PATUXENT RIVER CLOUDY    50  44  80 NW8       29.70R
ST INIGOES     CLOUDY    51  43  74 VRB3      29.69R
LEONARDTOWN*   CLOUDY    50  41  71 NW6       29.71R

$$

MDZ003>005-261500-
NORTH CENTRAL MARYLAND

CITY           SKY/WX    TMP DP  RH WIND       PRES   REMARKS
FREDERICK*     NOT AVBL
HAGERSTOWN APT SUNNY     52  31  44 N12       29.73S
WESTMINSTER*   SUNNY     50  32  50 N7        29.71S

$$

MDZ501>502-261500-
WESTERN MARYLAND

CITY           SKY/WX    TMP DP  RH WIND       PRES   REMARKS
OAKLAND*       MOSUNNY   41  36  81 E9        29.70S
CUMBERLAND*    MOSUNNY   50  34  53 N5        29.79R

$$

VAZ025>031-261500-
SHENANDOAH VALLEY

CITY           SKY/WX    TMP DP  RH WIND       PRES   REMARKS
WINCHESTER*    MOSUNNY   48  34  57 CALM      29.74R
FRONT ROYAL*   CLOUDY    45  39  81 CALM      29.73R
LURAY*         CLOUDY    46  43  87 CALM      29.73S
NEW MARKET*    CLOUDY    44  39  83 CALM      29.74R
STAUNTON*      CLOUDY    43  39  88 NE6       29.75R
WAYNESBORO*    CLOUDY    39  38  97 N3        29.73R

$$

WVZ021-048>050-054>055-261500-
EASTERN WEST VIRGINIA PANHANDLE

CITY           SKY/WX    TMP DP  RH WIND       PRES   REMARKS
MARTINSBURG    MOSUNNY   52  34  50 N7        29.74R
PETERSBURG*    CLOUDY    45  37  73 CALM      29.77R

$$

VAZ036>039-050-261500-
CENTRAL FOOTHILLS

CITY           SKY/WX    TMP DP  RH WIND       PRES   REMARKS
CHARLOTTESVILL CLOUDY    45  41  86 CALM      29.73R
CULPEPER*      CLOUDY    50  41  71 N5        29.73S
ORANGE*        CLOUDY    46  43  87 N3        29.74R
GORDONSVILLE*  CLOUDY    46  41  80 NE5       29.72S
WARRENTON*     CLOUDY    51  41  68 N7        29.72S

$$

VAZ055>057-261500-
NORTH AND CENTRAL PIEDMONT

CITY           SKY/WX    TMP DP  RH WIND       PRES   REMARKS
FREDERICKSBRG* PTSUNNY   48  45  88 NW5       29.72R
STAFFORD*      CLOUDY    49  49  99 N6        29.76R

$$

NCZ024-NYZ072-PAZ021-071-VAZ022-071-261500-
OTHER REGIONAL OBSERVATIONS

CITY           SKY/WX    TMP DP  RH WIND       PRES   REMARKS
NEW YORK CITY  SUNNY     54  28  36 E9        29.73S
PHILADELPHIA   MOSUNNY   53  32  44 NE10      29.71R
PITTSBURGH     MOSUNNY   49  26  41 NE10      29.77R
ROANOKE        CLOUDY    44  41  89 N3        29.74R
RICHMOND       CLOUDY    47  43  86 N9        29.72R
RALEIGH        CLOUDY    48  46  93 NE9       29.69R

$$

ANZ530>537-261500-
MARINE OBSERVATIONS

STATION/POSITION TIME  TEMP    WIND        PRES
                       AIR SEA DIR/SP/G
                 (UTC) (F)     (DEG/KT/KT) (MB)
THOMAS PT LIGHT  1400   49 51   10/ 10/ 12 1006.6R
BALT KEY BRIDGE  1300   50      10/ 10/ 12 1005.3R
COVE POINT       1300   45     360/  8/ 10 1005.6R
LEWISETTA        1300   47 55              1005.0R
SOLOMONS ISLAND  1300      54                N/A
PINEY POINT      1300           30/  5/  6   N/A

$$




USA.gov is the U.S. government's official web portal to all federal, state and local government web resources and services.